Time,TemperatureF,DewpointF,PressureIn,WindDirection,WindDirectionDegrees,WindSpeedMPH,WindSpeedGustMPH,Humidity,HourlyPrecipIn,Conditions,Clouds,dailyrainin,SoftwareType,DateUTC
2013-03-20 00:03:00,28.0,17.0,-100.00,WSW,250,9.0,12.0,63,0.00,,,-99.99,,2013-03-20 04:03:00,
2013-03-20 00:12:00,29.0,18.0,-100.00,West,260,11.0,13.0,64,0.00,,,-99.99,,2013-03-20 04:12:00,
2013-03-20 00:23:00,29.0,19.0,-100.00,WSW,250,11.0,15.0,64,0.00,,,-99.99,,2013-03-20 04:23:00,
2013-03-20 00:32:00,29.0,19.0,-100.00,WSW,250,12.0,15.0,64,0.00,,,-99.99,,2013-03-20 04:32:00,
2013-03-20 00:43:00,29.0,19.0,-100.00,West,260,12.0,19.0,63,0.00,,,-99.99,,2013-03-20 04:43:00,
2013-03-20 00:52:00,29.0,18.0,-100.00,West,260,11.0,17.0,63,0.00,,,-99.99,,2013-03-20 04:52:00,
2013-03-20 01:03:00,29.0,18.0,-100.00,WSW,255,11.0,17.0,64,0.00,,,-99.99,,2013-03-20 05:03:00,
2013-03-20 01:12:00,29.0,18.0,-100.00,WSW,255,12.0,21.0,63,0.00,,,-99.99,,2013-03-20 05:12:00,
2013-03-20 01:23:00,29.0,18.0,-100.00,West,275,14.0,23.0,62,0.00,,,-99.99,,2013-03-20 05:23:00,
2013-03-20 01:32:00,29.0,18.0,-100.00,West,265,15.0,21.0,62,0.00,,,-99.99,,2013-03-20 05:32:00,
2013-03-20 01:42:00,29.0,18.0,-100.00,West,260,13.0,21.0,62,0.00,,,-99.99,,2013-03-20 05:42:00,
2013-03-20 01:52:00,29.0,18.0,-100.00,West,260,15.0,21.0,62,0.00,,,-99.99,,2013-03-20 05:52:00,
2013-03-20 02:03:00,29.0,17.0,-100.00,West,265,15.0,22.0,62,0.00,,,-99.99,,2013-03-20 06:03:00,
2013-03-20 02:12:00,28.0,17.0,-100.00,WSW,255,13.0,24.0,62,0.00,,,-99.99,,2013-03-20 06:12:00,
2013-03-20 02:22:00,28.0,18.0,-100.00,WSW,255,13.0,17.0,63,0.00,,,-99.99,,2013-03-20 06:22:00,
2013-03-20 02:32:00,28.0,18.0,-100.00,WSW,250,9.0,14.0,66,0.00,,,-99.99,,2013-03-20 06:32:00,
2013-03-20 02:42:00,28.0,18.0,-100.00,WSW,255,12.0,17.0,65,0.00,,,-99.99,,2013-03-20 06:42:00,
2013-03-20 02:52:00,28.0,18.0,-100.00,WSW,255,12.0,15.0,66,0.00,,,-99.99,,2013-03-20 06:52:00,
2013-03-20 03:02:00,28.0,18.0,-100.00,WSW,255,11.0,17.0,66,0.00,,,-99.99,,2013-03-20 07:02:00,
2013-03-20 03:12:00,27.0,18.0,-100.00,West,260,10.0,16.0,66,0.00,,,-99.99,,2013-03-20 07:12:00,
2013-03-20 03:22:00,27.0,18.0,-100.00,West,265,12.0,17.0,66,0.00,,,-99.99,,2013-03-20 07:22:00,
2013-03-20 03:32:00,27.0,18.0,-100.00,West,260,11.0,16.0,67,0.00,,,-99.99,,2013-03-20 07:32:00,
2013-03-20 03:42:00,27.0,18.0,-100.00,WSW,255,9.0,14.0,68,0.00,,,-99.99,,2013-03-20 07:42:00,
2013-03-20 03:52:00,27.0,18.0,-100.00,WSW,250,9.0,13.0,68,0.00,,,-99.99,,2013-03-20 07:52:00,
2013-03-20 04:02:00,26.0,18.0,-100.00,West,260,9.0,12.0,70,0.00,,,-99.99,,2013-03-20 08:02:00,
2013-03-20 04:12:00,26.0,18.0,-100.00,WSW,250,8.0,12.0,71,0.00,,,-99.99,,2013-03-20 08:12:00,
2013-03-20 04:22:00,26.0,18.0,-100.00,WSW,255,8.0,11.0,72,0.00,,,-99.99,,2013-03-20 08:22:00,
2013-03-20 04:32:00,26.0,18.0,-100.00,WSW,250,8.0,11.0,72,0.00,,,-99.99,,2013-03-20 08:32:00,
2013-03-20 04:42:00,26.0,18.0,-100.00,WSW,255,7.0,10.0,73,0.00,,,-99.99,,2013-03-20 08:42:00,
2013-03-20 04:52:00,25.0,18.0,-100.00,WSW,255,6.0,9.0,74,0.00,,,-99.99,,2013-03-20 08:52:00,
2013-03-20 05:02:00,25.0,18.0,-100.00,WSW,250,6.0,7.0,75,0.00,,,-99.99,,2013-03-20 09:02:00,
2013-03-20 05:12:00,25.0,19.0,-100.00,WSW,245,7.0,11.0,75,0.00,,,-99.99,,2013-03-20 09:12:00,
2013-03-20 05:22:00,25.0,19.0,-100.00,WSW,245,7.0,10.0,75,0.00,,,-99.99,,2013-03-20 09:22:00,
2013-03-20 05:33:00,26.0,19.0,-100.00,WSW,245,7.0,12.0,75,0.00,,,-99.99,,2013-03-20 09:33:00,
2013-03-20 05:43:00,26.0,19.0,-100.00,WSW,250,7.0,9.0,76,0.00,,,-99.99,,2013-03-20 09:43:00,
2013-03-20 05:52:00,26.0,20.0,-100.00,WSW,240,7.0,9.0,76,0.00,,,-99.99,,2013-03-20 09:52:00,
2013-03-20 06:03:00,26.0,20.0,-100.00,WSW,240,7.0,9.0,76,0.00,,,-99.99,,2013-03-20 10:03:00,
2013-03-20 06:12:00,27.0,20.0,-100.00,WSW,250,8.0,12.0,75,0.00,,,-99.99,,2013-03-20 10:12:00,
2013-03-20 06:23:00,27.0,20.0,-100.00,West,270,9.0,14.0,74,0.00,,,-99.99,,2013-03-20 10:23:00,
2013-03-20 06:33:00,27.0,19.0,-100.00,West,270,12.0,18.0,72,0.00,,,-99.99,,2013-03-20 10:33:00,
2013-03-20 06:43:00,27.0,18.0,-100.00,West,280,13.0,22.0,70,0.00,,,-99.99,,2013-03-20 10:43:00,
2013-03-20 06:52:00,26.0,17.0,-100.00,WNW,285,13.0,18.0,68,0.00,,,-99.99,,2013-03-20 10:52:00,
2013-03-20 07:03:00,25.0,16.0,-100.00,West,275,12.0,20.0,68,0.00,,,-99.99,,2013-03-20 11:03:00,
2013-03-20 07:12:00,25.0,16.0,-100.00,West,280,10.0,19.0,68,0.00,,,-99.99,,2013-03-20 11:12:00,
2013-03-20 07:22:00,24.0,16.0,-100.00,West,275,9.0,15.0,69,0.00,,,-99.99,,2013-03-20 11:22:00,
2013-03-20 07:32:00,24.0,16.0,-100.00,West,270,11.0,14.0,69,0.00,,,-99.99,,2013-03-20 11:32:00,
2013-03-20 07:42:00,24.0,16.0,-100.00,West,265,9.0,14.0,68,0.00,,,-99.99,,2013-03-20 11:42:00,
2013-03-20 07:52:00,24.0,15.0,-100.00,West,260,7.0,12.0,69,0.00,,,-99.99,,2013-03-20 11:52:00,
2013-03-20 08:02:00,24.0,15.0,-100.00,West,260,9.0,11.0,69,0.00,,,-99.99,,2013-03-20 12:02:00,
2013-03-20 08:12:00,24.0,15.0,-100.00,West,260,9.0,14.0,69,0.00,,,-99.99,,2013-03-20 12:12:00,
2013-03-20 08:22:00,24.0,15.0,-100.00,West,260,9.0,14.0,69,0.00,,,-99.99,,2013-03-20 12:22:00,
2013-03-20 08:32:00,24.0,15.0,-100.00,West,260,9.0,14.0,69,0.00,,,-99.99,,2013-03-20 12:32:00,
2013-03-20 08:42:00,24.0,16.0,-100.00,WSW,245,10.0,13.0,69,0.00,,,-99.99,,2013-03-20 12:42:00,
2013-03-20 08:52:00,25.0,16.0,-100.00,WSW,255,9.0,14.0,69,0.00,,,-99.99,,2013-03-20 12:52:00,
2013-03-20 09:03:00,25.0,16.0,-100.00,WSW,255,9.0,17.0,69,0.00,,,-99.99,,2013-03-20 13:03:00,
2013-03-20 09:12:00,25.0,17.0,-100.00,WSW,255,11.0,16.0,69,0.00,,,-99.99,,2013-03-20 13:12:00,
2013-03-20 09:22:00,26.0,17.0,-100.00,West,265,14.0,17.0,68,0.00,,,-99.99,,2013-03-20 13:22:00,
2013-03-20 09:32:00,26.0,16.0,-100.00,WSW,255,11.0,19.0,66,0.00,,,-99.99,,2013-03-20 13:32:00,
2013-03-20 09:42:00,26.0,16.0,-100.00,West,260,14.0,21.0,65,0.00,,,-99.99,,2013-03-20 13:42:00,
2013-03-20 09:52:00,25.0,15.0,-100.00,West,260,19.0,24.0,63,0.00,,,-99.99,,2013-03-20 13:52:00,
2013-03-20 10:03:00,26.0,16.0,-100.00,West,270,14.0,20.0,63,0.00,,,-99.99,,2013-03-20 14:03:00,
2013-03-20 10:12:00,26.0,15.0,-100.00,West,270,16.0,21.0,63,0.00,,,-99.99,,2013-03-20 14:12:00,
2013-03-20 10:23:00,26.0,15.0,-100.00,West,270,13.0,19.0,63,0.00,,,-99.99,,2013-03-20 14:23:00,
2013-03-20 10:34:00,26.0,15.0,-100.00,WNW,290,15.0,21.0,61,0.00,,,-99.99,,2013-03-20 14:34:00,
2013-03-20 10:42:00,26.0,15.0,-100.00,WNW,285,15.0,19.0,60,0.00,,,-99.99,,2013-03-20 14:42:00,
2013-03-20 10:52:00,27.0,15.0,-100.00,West,270,14.0,18.0,61,0.00,,,-99.99,,2013-03-20 14:52:00,
2013-03-20 11:03:00,27.0,15.0,-100.00,WSW,250,13.0,21.0,59,0.00,,,-99.99,,2013-03-20 15:03:00,
2013-03-20 11:12:00,27.0,15.0,-100.00,West,270,12.0,19.0,60,0.00,,,-99.99,,2013-03-20 15:12:00,
2013-03-20 11:22:00,26.0,14.0,-100.00,WSW,245,12.0,19.0,59,0.00,,,-99.99,,2013-03-20 15:22:00,
2013-03-20 11:33:00,27.0,15.0,-100.00,West,265,14.0,19.0,59,0.00,,,-99.99,,2013-03-20 15:33:00,
2013-03-20 11:43:00,27.0,14.0,-100.00,WSW,255,17.0,22.0,56,0.00,,,-99.99,,2013-03-20 15:43:00,
2013-03-20 11:52:00,27.0,14.0,-100.00,WSW,255,17.0,22.0,56,0.00,,,-99.99,,2013-03-20 15:52:00,
2013-03-20 12:03:00,28.0,15.0,-100.00,WSW,255,11.0,19.0,56,0.00,,,-99.99,,2013-03-20 16:03:00,
2013-03-20 12:12:00,27.0,14.0,-100.00,West,265,14.0,20.0,58,0.00,,,-99.99,,2013-03-20 16:12:00,
2013-03-20 12:23:00,27.0,14.0,-100.00,West,265,14.0,20.0,58,0.00,,,-99.99,,2013-03-20 16:23:00,
2013-03-20 12:33:00,28.0,14.0,-100.00,West,265,12.0,17.0,54,0.00,,,-99.99,,2013-03-20 16:33:00,
2013-03-20 12:43:00,27.0,14.0,-100.00,WSW,245,12.0,17.0,56,0.00,,,-99.99,,2013-03-20 16:43:00,
2013-03-20 12:52:00,27.0,14.0,-100.00,WSW,250,15.0,21.0,56,0.00,,,-99.99,,2013-03-20 16:52:00,
2013-03-20 13:03:00,28.0,14.0,-100.00,West,265,12.0,19.0,56,0.00,,,-99.99,,2013-03-20 17:03:00,
2013-03-20 13:12:00,28.0,14.0,-100.00,West,265,15.0,22.0,54,0.00,,,-99.99,,2013-03-20 17:12:00,
2013-03-20 13:22:00,27.0,14.0,-100.00,WSW,255,13.0,21.0,56,0.00,,,-99.99,,2013-03-20 17:22:00,
2013-03-20 13:32:00,27.0,14.0,-100.00,West,260,15.0,23.0,56,0.00,,,-99.99,,2013-03-20 17:32:00,
2013-03-20 13:42:00,28.0,14.0,-100.00,SW,235,12.0,20.0,55,0.00,,,-99.99,,2013-03-20 17:42:00,
2013-03-20 13:52:00,28.0,14.0,-100.00,West,260,13.0,20.0,55,0.00,,,-99.99,,2013-03-20 17:52:00,
2013-03-20 14:02:00,27.0,14.0,-100.00,West,265,15.0,21.0,57,0.00,,,-99.99,,2013-03-20 18:02:00,
2013-03-20 14:12:00,27.0,15.0,-100.00,West,265,14.0,21.0,58,0.00,,,-99.99,,2013-03-20 18:12:00,
2013-03-20 14:22:00,27.0,16.0,-100.00,West,270,14.0,22.0,63,0.00,,,-99.99,,2013-03-20 18:22:00,
2013-03-20 14:33:00,27.0,15.0,-100.00,WSW,255,19.0,26.0,59,0.00,,,-99.99,,2013-03-20 18:33:00,
2013-03-20 14:42:00,28.0,16.0,-100.00,WSW,245,14.0,25.0,61,0.00,,,-99.99,,2013-03-20 18:42:00,
2013-03-20 14:52:00,26.0,14.0,-100.00,West,260,19.0,25.0,60,0.00,,,-99.99,,2013-03-20 18:52:00,
2013-03-20 15:02:00,26.0,15.0,-100.00,West,265,22.0,27.0,61,0.00,,,-99.99,,2013-03-20 19:02:00,
2013-03-20 15:12:00,27.0,16.0,-100.00,West,270,17.0,24.0,63,0.00,,,-99.99,,2013-03-20 19:12:00,
2013-03-20 15:22:00,27.0,16.0,-100.00,West,270,17.0,24.0,63,0.00,,,-99.99,,2013-03-20 19:22:00,
2013-03-20 15:32:00,28.0,16.0,-100.00,West,260,13.0,24.0,60,0.00,,,-99.99,,2013-03-20 19:32:00,
2013-03-20 15:42:00,27.0,15.0,-100.00,West,270,16.0,24.0,59,0.00,,,-99.99,,2013-03-20 19:42:00,
2013-03-20 15:52:00,28.0,14.0,-100.00,SW,230,15.0,24.0,56,0.00,,,-99.99,,2013-03-20 19:52:00,
2013-03-20 16:02:00,27.0,13.0,-100.00,WSW,250,16.0,24.0,55,0.00,,,-99.99,,2013-03-20 20:02:00,
2013-03-20 16:13:00,27.0,13.0,-100.00,West,260,19.0,24.0,55,0.00,,,-99.99,,2013-03-20 20:13:00,
2013-03-20 16:22:00,27.0,14.0,-100.00,West,260,18.0,24.0,56,0.00,,,-99.99,,2013-03-20 20:22:00,
2013-03-20 16:32:00,27.0,13.0,-100.00,West,275,17.0,21.0,56,0.00,,,-99.99,,2013-03-20 20:32:00,
2013-03-20 16:42:00,26.0,13.0,-100.00,West,270,17.0,24.0,58,0.00,,,-99.99,,2013-03-20 20:42:00,
2013-03-20 16:52:00,28.0,14.0,-100.00,West,265,18.0,27.0,55,0.00,,,-99.99,,2013-03-20 20:52:00,
2013-03-20 17:02:00,25.0,13.0,-100.00,West,275,16.0,24.0,58,0.00,,,-99.99,,2013-03-20 21:02:00,
2013-03-20 17:12:00,26.0,14.0,-100.00,West,275,17.0,25.0,58,0.00,,,-99.99,,2013-03-20 21:12:00,
2013-03-20 17:22:00,26.0,13.0,-100.00,West,265,17.0,24.0,57,0.00,,,-99.99,,2013-03-20 21:22:00,
2013-03-20 17:33:00,26.0,11.0,-100.00,WSW,255,19.0,26.0,54,0.00,,,-99.99,,2013-03-20 21:33:00,
2013-03-20 17:42:00,26.0,11.0,-100.00,WSW,255,19.0,26.0,54,0.00,,,-99.99,,2013-03-20 21:42:00,
2013-03-20 17:52:00,26.0,13.0,-100.00,WNW,290,16.0,27.0,57,0.00,,,-99.99,,2013-03-20 21:52:00,
2013-03-20 18:03:00,26.0,12.0,-100.00,WNW,290,16.0,22.0,55,0.00,,,-99.99,,2013-03-20 22:03:00,
2013-03-20 18:12:00,25.0,11.0,-100.00,WNW,285,16.0,24.0,55,0.00,,,-99.99,,2013-03-20 22:12:00,
2013-03-20 18:23:00,25.0,11.0,-100.00,WNW,285,16.0,23.0,55,0.00,,,-99.99,,2013-03-20 22:23:00,
2013-03-20 18:33:00,25.0,11.0,-100.00,West,280,16.0,25.0,55,0.00,,,-99.99,,2013-03-20 22:33:00,
2013-03-20 18:42:00,25.0,11.0,-100.00,West,280,17.0,22.0,55,0.00,,,-99.99,,2013-03-20 22:42:00,
2013-03-20 18:52:00,24.0,11.0,-100.00,WNW,285,19.0,24.0,56,0.00,,,-99.99,,2013-03-20 22:52:00,
2013-03-20 19:02:00,24.0,11.0,-100.00,WNW,290,16.0,22.0,56,0.00,,,-99.99,,2013-03-20 23:02:00,
2013-03-20 19:12:00,24.0,10.0,-100.00,West,280,15.0,21.0,56,0.00,,,-99.99,,2013-03-20 23:12:00,
2013-03-20 19:22:00,23.0,10.0,-100.00,West,260,16.0,24.0,56,0.00,,,-99.99,,2013-03-20 23:22:00,
2013-03-20 19:32:00,23.0,10.0,-100.00,West,280,15.0,22.0,57,0.00,,,-99.99,,2013-03-20 23:32:00,
2013-03-20 19:42:00,22.0,10.0,-100.00,WNW,285,14.0,21.0,59,0.00,,,-99.99,,2013-03-20 23:42:00,
2013-03-20 19:52:00,22.0,11.0,-100.00,West,280,17.0,23.0,62,0.00,,,-99.99,,2013-03-20 23:52:00,
2013-03-20 20:03:00,22.0,12.0,-100.00,West,275,12.0,21.0,64,0.00,,,-99.99,,2013-03-21 00:03:00,
2013-03-20 20:12:00,22.0,12.0,-100.00,WNW,290,14.0,17.0,66,0.00,,,-99.99,,2013-03-21 00:12:00,
2013-03-20 20:23:00,22.0,13.0,-100.00,West,275,12.0,18.0,69,0.00,,,-99.99,,2013-03-21 00:23:00,
2013-03-20 20:33:00,21.0,13.0,-100.00,WNW,290,8.0,15.0,71,0.00,,,-99.99,,2013-03-21 00:33:00,
2013-03-20 20:42:00,21.0,14.0,-100.00,WNW,290,11.0,15.0,72,0.00,,,-99.99,,2013-03-21 00:42:00,
2013-03-20 20:52:00,21.0,14.0,-100.00,WNW,290,11.0,15.0,72,0.00,,,-99.99,,2013-03-21 00:52:00,
2013-03-20 21:02:00,20.0,15.0,-100.00,WNW,300,10.0,12.0,78,0.00,,,-99.99,,2013-03-21 01:02:00,
2013-03-20 21:12:00,20.0,15.0,-100.00,NW,305,13.0,17.0,77,0.55,,,-99.99,,2013-03-21 01:12:00,
2013-03-20 21:22:00,20.0,15.0,-100.00,NW,305,13.0,17.0,77,0.55,,,-99.99,,2013-03-21 01:22:00,
2013-03-20 21:33:00,19.0,15.0,-100.00,WNW,290,9.0,14.0,81,0.00,,,-99.99,,2013-03-21 01:33:00,
2013-03-20 21:42:00,19.0,15.0,-100.00,West,275,9.0,14.0,81,0.00,,,-99.99,,2013-03-21 01:42:00,
2013-03-20 21:52:00,19.0,15.0,-100.00,WNW,290,8.0,13.0,81,0.00,,,-99.99,,2013-03-21 01:52:00,
2013-03-20 22:02:00,19.0,14.0,-100.00,West,280,10.0,15.0,80,0.00,,,-99.99,,2013-03-21 02:02:00,
2013-03-20 22:12:00,19.0,14.0,-100.00,West,275,11.0,13.0,79,0.00,,,-99.99,,2013-03-21 02:12:00,
2013-03-20 22:22:00,19.0,14.0,-100.00,WNW,285,8.0,16.0,79,0.00,,,-99.99,,2013-03-21 02:22:00,
2013-03-20 22:33:00,19.0,14.0,-100.00,West,275,10.0,12.0,79,0.00,,,-99.99,,2013-03-21 02:33:00,
2013-03-20 22:42:00,19.0,14.0,-100.00,West,275,10.0,12.0,79,0.00,,,-99.99,,2013-03-21 02:42:00,
2013-03-20 22:51:00,19.0,14.0,-100.00,West,275,10.0,12.0,79,0.00,,,-99.99,,2013-03-21 02:51:00,
2013-03-20 23:02:00,19.0,14.0,-100.00,West,280,7.0,9.0,80,0.00,,,-99.99,,2013-03-21 03:02:00,
2013-03-20 23:12:00,19.0,14.0,-100.00,West,270,9.0,12.0,80,0.00,,,-99.99,,2013-03-21 03:12:00,
2013-03-20 23:22:00,19.0,14.0,-100.00,West,280,7.0,12.0,80,0.00,,,-99.99,,2013-03-21 03:22:00,
2013-03-20 23:33:00,19.0,14.0,-100.00,West,280,7.0,12.0,80,0.00,,,-99.99,,2013-03-21 03:33:00,
2013-03-20 23:43:00,18.0,13.0,-100.00,West,270,7.0,11.0,80,0.00,,,-99.99,,2013-03-21 03:43:00,
2013-03-20 23:53:00,18.0,13.0,-100.00,West,280,4.0,9.0,80,0.00,,,-99.99,,2013-03-21 03:53:00,